Location: Nelson
(41.2830°S, 173.2830°E)
Time: 13:01:51
(UTC+13:00)

Radarsat Rocket - Pass Details

Date: 02 October 2021
Orbit: 933 x 1492 km, 100.6° (Epoch: 27 October)

Event Time Altitude Azimuth Distance (km) Brightness Sun altitude
Rises 05:47:30 0° 47° (NE) 4,611 7.9 -14.1°
Reaches altitude 10° 05:50:33 10° 54° (NE) 3,642 7.5 -13.6°
Maximum altitude 05:58:22 40° 118° (ESE) 2,062 6.3 -12.2°
Drops below altitude 10° 06:05:52 10° 182° (S) 3,504 7.0 -10.8°
Sets 06:08:44 0° 189° (S) 4,421 7.5 -10.3°
